S51UL-6 Weather Reports


time (UTC)temp
C
wind
direction
speed
KPH
gust
KPH
rain 1hr
cm
rain 24hr
cm
rain mn
cm
humidity
%
barometer
mb
20260507191753 13 23 0.0 0.0 0.00 0.00 0.00 65 1016.1
20260507190753 13 315 0.0 1.6 0.00 0.00 0.00 64 1016.1
20260507190253 13 293 1.6 8.0 0.00 0.00 0.00 63 1015.8
20260507185755 13 338 1.6 8.0 0.00 0.00 0.00 62 1015.6
20260507185253 13 23 1.6 6.4 0.00 0.00 0.00 62 1015.4
20260507184255 13 0 8.0 25.7 0.00 0.00 0.00 61 1015.1
20260507183754 14 0 11.3 25.7 0.00 0.00 0.00 60 1015.3
20260507182754 15 338 3.2 8.0 0.00 0.00 0.00 58 1015.1
20260507182252 15 338 3.2 14.5 0.00 0.00 0.00 58 1014.8
20260507181754 16 0 8.0 14.5 0.00 0.00 0.00 58 1014.5
20260507181254 16 0 9.7 11.3 0.00 0.00 0.00 57 1014.1
20260507180754 17 0 6.4 11.3 0.00 0.00 0.00 56 1013.9
20260507180255 17 0 6.4 11.3 0.00 0.00 0.00 56 1013.6
20260507175754 17 0 3.2 6.4 0.00 0.00 0.00 57 1013.3
20260507175255 17 158 1.6 9.7 0.00 0.00 0.00 59 1013.2
20260507173755 18 158 0.0 0.0 0.00 0.00 0.00 59 1011.9
20260507173254 18 158 0.0 0.0 0.00 0.00 0.00 59 1011.7
20260507172755 18 158 1.6 6.4 0.00 0.00 0.00 58 1011.7
20260507172255 18 158 0.0 6.4 0.00 0.00 0.00 57 1011.4
20260507171755 18 158 1.6 6.4 0.00 0.00 0.00 57 1011.3
20260507171022 19 135 4.8 11.3 0.00 0.00 0.00 56 1011.4
20260507170755 19 135 4.8 11.3 0.00 0.00 0.00 56 1011.4
20260507170255 19 158 6.4 12.9 0.00 0.00 0.00 56 1011.3
20260507165755 19 158 9.7 12.9 0.00 0.00 0.00 56 1011.2
20260507165255 19 158 9.7 12.9 0.00 0.00 0.00 57 1011.4
20260507163255 20 135 9.7 17.7 0.00 0.00 0.00 56 1011.4
20260507162756 20 158 8.0 11.3 0.00 0.00 0.00 56 1011.3
20260507162255 20 158 9.7 19.3 0.00 0.00 0.00 55 1011.3
20260507162009 20 180 14.5 19.3 0.00 0.00 0.00 55 1011.2
20260507161755 20 180 14.5 19.3 0.00 0.00 0.00 55 1011.2
20260507161256 20 158 14.5 14.5 0.00 0.00 0.00 55 1011.1
20260507160256 20 158 9.7 12.9 0.00 0.00 0.00 54 1011.0
20260507155256 20 158 6.4 9.7 0.00 0.00 0.00 54 1011.1
20260507153756 20 135 6.4 11.3 0.00 0.00 0.00 55 1011.0
20260507153257 20 135 8.0 14.5 0.00 0.00 0.00 55 1010.9
20260507152756 20 158 8.0 14.5 0.00 0.00 0.00 57 1011.1
20260507152256 20 180 6.4 11.3 0.00 0.00 0.00 58 1011.1
20260507151756 20 180 9.7 12.9 0.00 0.00 0.00 58 1011.1
20260507151256 20 135 11.3 14.5 0.00 0.00 0.00 58 1011.1
20260507150756 20 158 9.7 14.5 0.00 0.00 0.00 58 1011.0
20260507150256 20 180 11.3 17.7 0.00 0.00 0.00 58 1011.1
20260507145756 20 158 17.7 24.1 0.00 0.00 0.00 57 1011.1
20260507145256 20 158 14.5 24.1 0.00 0.00 0.00 57 1011.2
20260507144257 21 158 16.1 20.9 0.00 0.00 0.00 56 1011.1
20260507143756 21 158 11.3 20.9 0.00 0.00 0.00 56 1011.2
20260507143256 21 135 8.0 12.9 0.00 0.00 0.00 56 1011.3
20260507142757 21 158 9.7 11.3 0.00 0.00 0.00 57 1011.1
20260507142258 21 135 8.0 11.3 0.00 0.00 0.00 57 1011.3
20260507140757 21 158 19.3 20.9 0.00 0.00 0.00 59 1011.4
20260507140257 21 135 16.1 20.9 0.00 0.00 0.00 59 1011.3
20260507135257 20 158 11.3 20.9 0.00 0.00 0.00 61 1011.5
20260507134758 20 180 12.9 20.9 0.00 0.00 0.00 60 1011.5
20260507134257 20 158 9.7 12.9 0.00 0.00 0.00 59 1011.8
20260507133757 20 158 9.7 11.3 0.00 0.00 0.00 58 1011.6
20260507133258 20 158 11.3 24.1 0.00 0.00 0.00 57 1011.6
20260507132757 21 180 11.3 24.1 0.00 0.00 0.00 55 1011.7
20260507132257 21 180 11.3 20.9 0.00 0.00 0.00 54 1011.7
20260507131759 21 158 11.3 20.9 0.00 0.00 0.00 54 1011.5
20260507131257 21 158 9.7 17.7 0.00 0.00 0.00 53 1011.7
20260507130757 21 135 8.0 17.7 0.00 0.00 0.00 53 1012.0
20260507130258 22 158 11.3 16.1 0.00 0.00 0.00 53 1011.7
20260507125757 22 158 12.9 16.1 0.00 0.00 0.00 51 1011.9
20260507125258 22 158 9.7 12.9 0.00 0.00 0.00 51 1011.8
20260507124757 22 158 11.3 14.5 0.00 0.00 0.00 52 1011.9
20260507124258 22 158 11.3 14.5 0.00 0.00 0.00 52 1012.0
20260507123258 23 135 8.0 14.5 0.00 0.00 0.00 52 1012.0
20260507122959 22 158 14.5 16.1 0.00 0.00 0.00 55 1012.3
20260507122758 22 135 12.9 22.5 0.00 0.00 0.00 53 1012.0
20260507121758 22 158 8.0 14.5 0.00 0.00 0.00 54 1012.2
20260507121258 22 180 8.0 14.5 0.00 0.00 0.00 53 1012.3
20260507120800 22 158 8.0 11.3 0.00 0.00 0.00 53 1012.2
20260507120258 23 158 6.4 11.3 0.00 0.00 0.00 53 1012.2
20260507115759 23 158 8.0 9.7 0.00 0.00 0.00 54 1012.1
20260507115258 23 158 8.0 14.5 0.00 0.00 0.00 54 1012.1
20260507114759 22 158 11.3 14.5 0.00 0.00 0.00 54 1012.2
20260507114258 22 158 14.5 16.1 0.00 0.00 0.00 55 1012.3
20260507113758 22 158 11.3 16.1 0.00 0.00 0.00 54 1012.4
20260507113258 22 158 11.3 19.3 0.00 0.00 0.00 55 1012.3
20260507112759 23 158 8.0 19.3 0.00 0.00 0.00 54 1012.3
20260507112259 22 158 4.8 9.7 0.00 0.00 0.00 54 1012.3
20260507111300 23 158 12.9 19.3 0.00 0.00 0.00 52 1012.3
20260507110759 23 135 12.9 20.9 0.00 0.00 0.00 52 1012.4
20260507105259 23 158 16.1 22.5 0.00 0.00 0.00 53 1012.6
20260507104759 22 158 14.5 22.5 0.00 0.00 0.00 54 1012.5
20260507104259 22 158 6.4 11.3 0.00 0.00 0.00 55 1012.5
20260507103759 22 135 8.0 11.3 0.00 0.00 0.00 57 1012.6
20260507103300 22 158 4.8 11.3 0.00 0.00 0.00 58 1012.6
20260507102759 21 158 4.8 8.0 0.00 0.00 0.00 59 1012.9
20260507102300 21 158 3.2 12.9 0.00 0.00 0.00 60 1012.8
20260507101800 21 158 6.4 12.9 0.00 0.00 0.00 60 1013.0
20260507101300 21 135 6.4 8.0 0.00 0.00 0.00 60 1012.7
20260507101026 21 135 6.4 11.3 0.00 0.00 0.00 60 1012.8
20260507100800 21 135 6.4 11.3 0.00 0.00 0.00 60 1012.8
20260507095759 20 180 9.7 20.9 0.00 0.00 0.00 63 1013.1
20260507095300 20 180 11.3 20.9 0.00 0.00 0.00 63 1013.2
20260507094800 19 135 6.4 12.9 0.00 0.00 0.00 65 1013.1
20260507094300 18 135 9.7 12.9 0.00 0.00 0.00 65 1013.3
20260507092301 18 158 4.8 11.3 0.00 0.00 0.00 67 1013.4
20260507091300 18 135 6.4 12.9 0.00 0.00 0.00 68 1013.4
20260507090800 18 135 4.8 11.3 0.00 0.00 0.00 68 1013.2
20260507090300 18 158 11.3 19.3 0.00 0.00 0.00 68 1013.4
20260507085300 17 158 4.8 9.7 0.00 0.00 0.00 71 1013.2
20260507084801 17 158 8.0 11.3 0.00 0.00 0.00 71 1013.2
20260507084301 17 158 6.4 11.3 0.00 0.00 0.00 71 1013.4
20260507082801 16 180 1.6 6.4 0.00 0.00 0.00 73 1013.2
20260507082301 16 180 1.6 6.4 0.00 0.00 0.00 73 1013.1
20260507081801 16 135 0.0 0.0 0.00 0.00 0.00 74 1013.1
20260507080801 16 158 0.0 6.4 0.00 0.00 0.00 75 1013.0
20260507080301 16 135 0.0 1.6 0.00 0.00 0.00 76 1012.9
20260507075759 16 135 0.0 4.8 0.00 0.00 0.00 76 1013.1
20260507075301 15 180 1.6 4.8 0.00 0.00 0.00 76 1013.0
20260507074801 15 135 0.0 0.0 0.00 0.00 0.00 77 1012.9
20260507074301 15 135 0.0 0.0 0.00 0.00 0.00 77 1012.7
20260507073801 15 135 0.0 0.0 0.00 0.00 0.00 77 1012.7
20260507073301 15 158 0.0 0.0 0.00 0.00 0.00 77 1012.9
20260507072301 15 135 0.0 0.0 0.00 0.00 0.00 77 1012.7
20260507071802 15 135 0.0 0.0 0.00 0.00 0.00 78 1012.7
20260507071302 15 180 0.0 0.0 0.00 0.00 0.00 79 1012.7
20260507070802 15 158 0.0 0.0 0.00 0.00 0.00 79 1012.6
20260507070301 14 158 0.0 0.0 0.00 0.00 0.00 79 1012.4
20260507065802 14 158 0.0 0.0 0.00 0.00 0.00 80 1012.4
20260507065306 14 158 0.0 0.0 0.00 0.00 0.00 80 1012.6
20260507064803 14 158 0.0 0.0 0.00 0.00 0.00 81 1012.4
20260507064303 13 158 0.0 0.0 0.00 0.00 0.00 81 1012.2
20260507063802 13 45 0.0 0.0 0.00 0.00 0.00 81 1012.2
20260507063300 13 45 0.0 0.0 0.00 0.00 0.00 82 1012.2
20260507062802 13 45 0.0 0.0 0.00 0.00 0.00 82 1012.3
20260507062305 13 45 0.0 0.0 0.00 0.00 0.00 82 1012.4
20260507061802 13 45 0.0 0.0 0.00 0.00 0.00 82 1012.4
20260507061302 13 45 0.0 0.0 0.00 0.00 0.00 82 1012.3
20260507060802 12 45 0.0 0.0 0.00 0.00 0.00 82 1012.1
20260507055301 12 45 0.0 0.0 0.00 0.00 0.00 82 1012.1
20260507054801 12 45 0.0 0.0 0.00 0.00 0.00 82 1012.0
20260507054301 12 45 0.0 0.0 0.00 0.00 0.00 82 1012.0
20260507053802 12 45 0.0 0.0 0.00 0.00 0.00 82 1012.0
20260507053304 12 45 0.0 0.0 0.00 0.00 0.00 82 1011.9
20260507052803 12 45 0.0 0.0 0.00 0.00 0.00 82 1011.8
20260507051804 12 45 0.0 0.0 0.00 0.00 0.00 82 1012.0
20260507051303 11 158 0.0 0.0 0.00 0.00 0.00 82 1011.8
20260507050803 11 135 0.0 0.0 0.00 0.00 0.00 82 1011.7
20260507045803 11 113 0.0 0.0 0.00 0.00 0.00 82 1011.7
20260507045306 11 113 0.0 0.0 0.00 0.00 0.00 82 1011.8
20260507044802 11 113 0.0 0.0 0.00 0.00 0.00 82 1011.7
20260507043804 11 113 0.0 0.0 0.00 0.00 0.00 82 1011.7
20260507043301 11 113 0.0 0.0 0.00 0.00 0.00 82 1011.6
20260507041802 11 158 0.0 0.0 0.00 0.00 0.00 81 1011.4
20260507040304 11 158 0.0 0.0 0.00 0.00 0.00 81 1011.3
20260507035805 11 158 0.0 0.0 0.00 0.00 0.00 81 1011.2
20260507035306 11 158 0.0 0.0 0.00 0.00 0.00 82 1010.9
20260507034804 11 158 0.0 0.0 0.00 0.00 0.00 82 1011.3
20260507034304 11 158 0.0 0.0 0.00 0.00 0.00 82 1011.2
20260507033304 11 158 0.0 0.0 0.00 0.00 0.00 82 1011.2
20260507032804 11 180 0.0 0.0 0.00 0.00 0.00 83 1011.3
20260507032306 11 180 0.0 0.0 0.00 0.00 0.00 82 1011.1
20260507031306 11 23 0.0 0.0 0.00 0.00 0.00 81 1011.1
20260507030302 11 23 0.0 0.0 0.00 0.00 0.00 81 1011.0
20260507025804 11 23 0.0 0.0 0.00 0.00 0.00 81 1011.3
20260507025306 11 23 0.0 0.0 0.00 0.00 0.00 81 1011.2
20260507024805 11 23 0.0 0.0 0.00 0.00 0.00 82 1011.1
20260507024305 11 23 0.0 0.0 0.00 0.00 0.00 81 1011.3
20260507023305 11 23 0.0 0.0 0.00 0.00 0.00 81 1011.3
20260507022306 11 23 0.0 0.0 0.00 0.00 0.00 81 1011.3
20260507021805 11 23 0.0 0.0 0.00 0.00 0.00 82 1011.1
20260507021305 11 23 0.0 0.0 0.00 0.00 0.00 82 1011.1
20260507020804 11 158 0.0 0.0 0.00 0.00 0.00 81 1011.2
20260507015804 11 158 0.0 0.0 0.00 0.00 0.00 81 1010.8
20260507015306 11 158 0.0 0.0 0.00 0.00 0.00 81 1010.7
20260507014805 11 158 0.0 0.0 0.00 0.00 0.00 80 1010.8
20260507013805 11 23 0.0 0.0 0.00 0.00 0.00 80 1010.8
20260507013306 11 23 0.0 0.0 0.00 0.00 0.00 79 1011.0
20260507012805 11 23 0.0 0.0 0.00 0.00 0.00 80 1010.8
20260507012306 12 23 0.0 0.0 0.00 0.00 0.00 79 1010.9
20260507011805 12 23 0.0 0.0 0.00 0.00 0.00 80 1011.0
20260507011307 12 23 0.0 0.0 0.00 0.00 0.00 79 1011.0
20260507010808 12 23 0.0 0.0 0.00 0.00 0.00 79 1011.0
20260507010306 12 23 0.0 0.0 0.00 0.00 0.00 78 1010.9
20260507005806 12 23 0.0 0.0 0.00 0.00 0.00 77 1011.1
20260507004306 12 23 0.0 0.0 0.00 0.00 0.00 77 1010.9
20260507002806 12 23 0.0 0.0 0.00 0.00 0.00 77 1010.9
20260507001806 12 90 0.0 0.0 0.00 0.00 0.00 77 1011.0
20260507001307 12 113 0.0 0.0 0.00 0.00 0.00 76 1011.0
20260507000806 12 45 0.0 0.0 0.00 0.00 0.00 75 1010.9
20260506235807 13 45 0.0 0.0 0.00 0.00 0.00 75 1011.0
20260506235307 13 45 0.0 0.0 0.00 0.00 0.00 75 1011.1
20260506234307 13 45 0.0 0.0 0.00 0.00 0.00 75 1011.1
20260506233809 13 180 0.0 0.0 0.00 0.00 0.00 75 1011.2
20260506233307 13 180 0.0 0.0 0.00 0.00 0.00 74 1011.3
20260506232807 13 180 0.0 0.0 0.00 0.00 0.00 74 1011.1
20260506232310 13 180 0.0 0.0 0.00 0.00 0.00 74 1011.1
20260506231807 13 135 0.0 0.0 0.00 0.00 0.00 74 1010.9
20260506230810 14 23 0.0 0.0 0.00 0.00 0.00 74 1011.2
20260506230307 14 0 0.0 0.0 0.00 0.00 0.00 74 1011.2
20260506225307 14 23 0.0 0.0 0.00 0.00 0.00 73 1010.9
20260506224308 15 180 0.0 0.0 0.00 0.00 0.00 73 1010.9
20260506223807 15 180 0.0 0.0 0.00 0.00 0.00 73 1010.7
20260506222855 15 135 0.0 0.0 0.00 0.00 0.00 73 1010.8
20260506222808 15 135 0.0 0.0 0.00 0.00 0.00 73 1010.8
20260506222345 15 293 0.0 0.0 0.00 0.00 0.00 72 1010.6
20260506222308 15 293 0.0 0.0 0.00 0.00 0.00 72 1010.6
20260506221808 15 293 0.0 0.0 0.00 0.00 0.00 72 1010.5
20260506221313 15 293 0.0 0.0 0.00 0.00 0.00 72 1010.6
20260506220808 15 203 0.0 0.0 0.00 0.00 0.00 72 1010.6
20260506220308 15 135 0.0 0.0 0.00 0.00 0.00 72 1010.9
20260506215808 15 158 0.0 3.2 0.00 0.00 0.00 72 1010.7
20260506215308 15 135 0.0 3.2 0.00 0.00 0.00 72 1010.6
20260506213808 15 248 0.0 3.2 0.00 0.00 0.00 72 1010.8
20260506213308 15 248 0.0 0.0 0.00 0.00 0.00 72 1010.7
20260506212809 15 248 0.0 0.0 0.00 0.00 0.00 72 1010.7
20260506212308 15 248 0.0 0.0 0.00 0.00 0.00 72 1010.9
20260506211808 15 248 0.0 0.0 0.00 0.00 0.00 72 1010.9
20260506210808 15 248 0.0 0.0 0.00 0.00 0.00 72 1010.8
20260506210309 15 158 0.0 0.0 0.00 0.00 0.00 71 1010.5
20260506205810 15 158 0.0 0.0 0.00 0.00 0.00 71 1010.5
20260506205308 15 158 0.0 0.0 0.00 0.00 0.00 71 1010.4
20260506204309 15 158 0.0 0.0 0.00 0.00 0.00 71 1010.4
20260506203809 15 135 3.2 6.4 0.00 0.00 0.00 71 1010.3
20260506203309 15 158 6.4 6.4 0.00 0.00 0.00 71 1010.3
20260506202809 15 158 6.4 11.3 0.00 0.00 0.00 71 1010.3
20260506202313 15 158 4.8 11.3 0.00 0.00 0.00 71 1010.3
20260506201310 16 135 4.8 11.3 0.00 0.00 0.00 70 1010.4
20260506200809 16 158 4.8 9.7 0.00 0.00 0.00 70 1010.5
20260506195809 16 135 4.8 8.0 0.00 0.00 0.00 69 1010.3
20260506195309 16 135 4.8 8.0 0.00 0.00 0.00 69 1010.3
20260506194310 16 158 8.0 12.9 0.00 0.00 0.00 69 1010.1
20260506193809 16 135 6.4 8.0 0.00 0.00 0.00 69 1010.2
20260506193309 16 135 3.2 6.4 0.00 0.00 0.00 69 1010.1
20260506192811 16 135 4.8 11.3 0.00 0.00 0.00 69 1010.1
20260506192309 16 135 3.2 11.3 0.00 0.00 0.00 69 1009.9